Year,Month,Day,Hour,Minute,Value (Times are PST for windspeed in km/hr)
2018,03,01,00,00,19.70
2018,03,01,00,01,22.60
2018,03,01,00,02,19.80
2018,03,01,00,03,18.30
2018,03,01,00,04,15.90
2018,03,01,00,05,21.90
2018,03,01,00,06,17.20
2018,03,01,00,07,16.20
2018,03,01,00,08,14.20
2018,03,01,00,09,16.70
2018,03,01,00,10,13.90
2018,03,01,00,11,11.10
2018,03,01,00,12,10.20
2018,03,01,00,13,14.90
2018,03,01,00,14,13.80
2018,03,01,00,15,13.80
2018,03,01,00,16,9.60
2018,03,01,00,17,11.30
2018,03,01,00,18,14.40
2018,03,01,00,19,15.90
2018,03,01,00,20,13.00
2018,03,01,00,21,16.70
2018,03,01,00,22,22.50
2018,03,01,00,23,16.50
2018,03,01,00,24,17.30
2018,03,01,00,25,13.30
2018,03,01,00,26,18.10
2018,03,01,00,27,14.90
2018,03,01,00,28,17.60
2018,03,01,00,29,10.50
2018,03,01,00,30,15.40
2018,03,01,00,31,14.10
2018,03,01,00,32,13.50
2018,03,01,00,33,12.50
2018,03,01,00,34,13.60
2018,03,01,00,35,16.60
2018,03,01,00,36,15.90
2018,03,01,00,37,18.20
2018,03,01,00,38,13.40
2018,03,01,00,39,14.80
2018,03,01,00,40,14.90
2018,03,01,00,41,14.60
2018,03,01,00,42,10.70
2018,03,01,00,43,12.30
2018,03,01,00,44,12.20
2018,03,01,00,45,14.60
2018,03,01,00,46,12.20
2018,03,01,00,47,13.50
2018,03,01,00,48,11.30
2018,03,01,00,49,13.10
2018,03,01,00,50,11.70
2018,03,01,00,51,12.00
2018,03,01,00,52,13.60
2018,03,01,00,53,12.60
2018,03,01,00,54,13.00
2018,03,01,00,55,13.20
2018,03,01,00,56,11.60
2018,03,01,00,57,14.80
2018,03,01,00,58,21.10
2018,03,01,00,59,15.40
2018,03,01,01,00,15.00
2018,03,01,01,01,14.30
2018,03,01,01,02,15.00
2018,03,01,01,03,13.20
2018,03,01,01,04,13.50
2018,03,01,01,05,17.80
2018,03,01,01,06,13.90
2018,03,01,01,07,17.60
2018,03,01,01,08,18.60
2018,03,01,01,09,14.30
2018,03,01,01,10,19.80
2018,03,01,01,11,19.30
2018,03,01,01,12,20.20
2018,03,01,01,13,15.40
2018,03,01,01,14,12.30
2018,03,01,01,15,9.20
2018,03,01,01,16,8.70
2018,03,01,01,17,14.00
2018,03,01,01,18,12.90
2018,03,01,01,19,14.20
2018,03,01,01,20,12.90
2018,03,01,01,21,12.20
2018,03,01,01,22,8.70
2018,03,01,01,23,8.10
2018,03,01,01,24,8.60
2018,03,01,01,25,8.50
2018,03,01,01,26,8.90
2018,03,01,01,27,9.80
2018,03,01,01,28,10.70
2018,03,01,01,29,10.50
2018,03,01,01,30,10.50
2018,03,01,01,31,11.70
2018,03,01,01,32,13.00
2018,03,01,01,33,16.00
2018,03,01,01,34,15.90
2018,03,01,01,35,12.40
2018,03,01,01,36,13.10
2018,03,01,01,37,12.40
2018,03,01,01,38,10.00
2018,03,01,01,39,13.80
2018,03,01,01,40,10.40
2018,03,01,01,41,8.70
2018,03,01,01,42,12.80
2018,03,01,01,43,11.20
2018,03,01,01,44,9.60
2018,03,01,01,45,15.20
2018,03,01,01,46,9.10
2018,03,01,01,47,12.40
2018,03,01,01,48,11.20
2018,03,01,01,49,11.20
2018,03,01,01,50,12.00
2018,03,01,01,51,8.90
2018,03,01,01,52,6.90
2018,03,01,01,53,6.60
2018,03,01,01,54,15.50
2018,03,01,01,55,18.70
2018,03,01,01,56,18.00
2018,03,01,01,57,15.80
2018,03,01,01,58,11.90
2018,03,01,01,59,11.10
2018,03,01,02,00,10.70
2018,03,01,02,01,8.20
2018,03,01,02,02,9.00
2018,03,01,02,03,12.50
2018,03,01,02,04,13.20
2018,03,01,02,05,9.00
2018,03,01,02,06,7.20
2018,03,01,02,07,8.00
2018,03,01,02,08,8.60
2018,03,01,02,09,10.00
2018,03,01,02,10,11.10
2018,03,01,02,11,13.30
2018,03,01,02,12,11.30
2018,03,01,02,13,17.90
2018,03,01,02,14,16.10
2018,03,01,02,15,20.00
2018,03,01,02,16,15.60
2018,03,01,02,17,10.80
2018,03,01,02,18,15.70
2018,03,01,02,19,18.90
2018,03,01,02,20,18.90
2018,03,01,02,21,19.50
2018,03,01,02,22,19.20
2018,03,01,02,23,15.90
2018,03,01,02,24,16.30
2018,03,01,02,25,13.80
2018,03,01,02,26,16.90
2018,03,01,02,27,16.70
2018,03,01,02,28,16.20
2018,03,01,02,29,11.80
2018,03,01,02,30,14.80
2018,03,01,02,31,6.60
2018,03,01,02,32,13.10
2018,03,01,02,33,15.90
2018,03,01,02,34,10.30
2018,03,01,02,35,8.60
2018,03,01,02,36,10.40
2018,03,01,02,37,3.70
2018,03,01,02,38,4.80
2018,03,01,02,39,4.50
2018,03,01,02,40,5.30
2018,03,01,02,41,14.00
2018,03,01,02,42,5.90
2018,03,01,02,43,5.30
2018,03,01,02,44,5.20
2018,03,01,02,45,2.40
2018,03,01,02,46,4.20
2018,03,01,02,47,8.30
2018,03,01,02,48,10.10
2018,03,01,02,49,7.60
2018,03,01,02,50,3.30
2018,03,01,02,51,8.50
2018,03,01,02,52,7.20
2018,03,01,02,53,8.90
2018,03,01,02,54,11.80
2018,03,01,02,55,9.10
2018,03,01,02,56,11.20
2018,03,01,02,57,9.60
2018,03,01,02,58,8.90
2018,03,01,02,59,5.80
2018,03,01,03,00,8.00
2018,03,01,03,01,11.30
2018,03,01,03,02,18.30
2018,03,01,03,03,10.00
2018,03,01,03,04,11.00
2018,03,01,03,05,12.70
2018,03,01,03,06,13.90
2018,03,01,03,07,12.20
2018,03,01,03,08,12.20
2018,03,01,03,09,10.60
2018,03,01,03,10,13.10
2018,03,01,03,11,7.50
2018,03,01,03,12,6.40
2018,03,01,03,13,7.50
2018,03,01,03,14,9.40
2018,03,01,03,15,12.80
2018,03,01,03,16,9.40
2018,03,01,03,17,7.70
2018,03,01,03,18,10.60
2018,03,01,03,19,11.90
2018,03,01,03,20,10.10
2018,03,01,03,21,8.60
2018,03,01,03,22,14.00
2018,03,01,03,23,13.80
2018,03,01,03,24,11.30
2018,03,01,03,25,15.20
2018,03,01,03,26,13.20
2018,03,01,03,27,5.50
2018,03,01,03,28,7.00
2018,03,01,03,29,5.30
2018,03,01,03,30,7.70
2018,03,01,03,31,10.70
2018,03,01,03,32,12.80
2018,03,01,03,33,8.40
2018,03,01,03,34,8.10
2018,03,01,03,35,6.50
2018,03,01,03,36,8.90
2018,03,01,03,37,10.50
2018,03,01,03,38,8.20
2018,03,01,03,39,8.90
2018,03,01,03,40,12.90
2018,03,01,03,41,7.40
2018,03,01,03,42,5.60
2018,03,01,03,43,7.40
2018,03,01,03,44,6.10
2018,03,01,03,45,6.70
2018,03,01,03,46,5.40
2018,03,01,03,47,2.50
2018,03,01,03,48,1.20
2018,03,01,03,49,4.50
2018,03,01,03,50,4.70
2018,03,01,03,51,5.00
2018,03,01,03,52,8.90
2018,03,01,03,53,6.10
2018,03,01,03,54,7.10
2018,03,01,03,55,4.20
2018,03,01,03,56,5.90
2018,03,01,03,57,5.80
2018,03,01,03,58,5.30
2018,03,01,03,59,7.00
2018,03,01,04,00,6.70
2018,03,01,04,01,7.50
2018,03,01,04,02,4.60
2018,03,01,04,03,2.90
2018,03,01,04,04,5.90
2018,03,01,04,05,5.50
2018,03,01,04,06,7.80
2018,03,01,04,07,6.70
2018,03,01,04,08,7.50
2018,03,01,04,09,3.50
2018,03,01,04,10,3.70
2018,03,01,04,11,3.10
2018,03,01,04,12,4.10
2018,03,01,04,13,4.40
2018,03,01,04,14,4.10
2018,03,01,04,15,2.90
2018,03,01,04,16,3.30
2018,03,01,04,17,4.70
2018,03,01,04,18,1.60
2018,03,01,04,19,0.40
2018,03,01,04,20,1.30
2018,03,01,04,21,0.10
2018,03,01,04,22,6.70
2018,03,01,04,23,7.10
2018,03,01,04,24,1.70
2018,03,01,04,25,6.60
2018,03,01,04,26,5.20
2018,03,01,04,27,1.70
2018,03,01,04,28,0.20
2018,03,01,04,29,0.10
2018,03,01,04,30,1.20
2018,03,01,04,31,0.20
2018,03,01,04,32,0.10
2018,03,01,04,33,0.20
2018,03,01,04,34,1.30
2018,03,01,04,35,0.10
2018,03,01,04,36,1.10
2018,03,01,04,37,3.10
2018,03,01,04,38,3.60
2018,03,01,04,39,2.40
2018,03,01,04,40,2.70
2018,03,01,04,41,3.80
2018,03,01,04,42,4.50
2018,03,01,04,43,3.40
2018,03,01,04,44,3.70
2018,03,01,04,45,2.60
2018,03,01,04,46,2.10
2018,03,01,04,47,2.20
2018,03,01,04,48,4.40
2018,03,01,04,49,2.00
2018,03,01,04,50,3.10
2018,03,01,04,51,1.00
2018,03,01,04,52,3.30
2018,03,01,04,53,5.60
2018,03,01,04,54,2.60
2018,03,01,04,55,4.40
2018,03,01,04,56,4.00
2018,03,01,04,57,2.30
2018,03,01,04,58,0.10
2018,03,01,04,59,1.70
2018,03,01,05,00,0.40
2018,03,01,05,01,0.00
2018,03,01,05,02,0.00
2018,03,01,05,03,0.00
2018,03,01,05,04,1.50
2018,03,01,05,05,0.00
2018,03,01,05,06,0.00
2018,03,01,05,07,0.90
2018,03,01,05,08,1.00
2018,03,01,05,09,0.40
2018,03,01,05,10,0.70
2018,03,01,05,11,0.00
2018,03,01,05,12,0.00
2018,03,01,05,13,0.00
2018,03,01,05,14,0.10
2018,03,01,05,15,2.90
2018,03,01,05,16,3.40
2018,03,01,05,17,2.40
2018,03,01,05,18,1.90
2018,03,01,05,19,2.50
2018,03,01,05,20,2.20
2018,03,01,05,21,4.40
2018,03,01,05,22,4.50
2018,03,01,05,23,4.30
2018,03,01,05,24,5.00
2018,03,01,05,25,4.90
2018,03,01,05,26,2.90
2018,03,01,05,27,0.90
2018,03,01,05,28,0.00
2018,03,01,05,29,0.00
2018,03,01,05,30,0.00
2018,03,01,05,31,0.00
2018,03,01,05,32,0.40
2018,03,01,05,33,1.70
2018,03,01,05,34,0.90
2018,03,01,05,35,0.00
2018,03,01,05,36,0.00
2018,03,01,05,37,0.60
2018,03,01,05,38,2.30
2018,03,01,05,39,1.10
2018,03,01,05,40,0.40
2018,03,01,05,41,0.50
2018,03,01,05,42,0.70
2018,03,01,05,43,0.00
2018,03,01,05,44,2.60
2018,03,01,05,45,4.70
2018,03,01,05,46,3.60
2018,03,01,05,47,3.10
2018,03,01,05,48,3.00
2018,03,01,05,49,2.90
2018,03,01,05,50,2.20
2018,03,01,05,51,0.70
2018,03,01,05,52,1.90
2018,03,01,05,53,3.00
2018,03,01,05,54,2.70
2018,03,01,05,55,3.30
2018,03,01,05,56,3.60
2018,03,01,05,57,2.90
2018,03,01,05,58,2.20
2018,03,01,05,59,0.20
2018,03,01,06,00,0.00
2018,03,01,06,01,0.00
2018,03,01,06,02,0.00
2018,03,01,06,03,0.00
2018,03,01,06,04,0.00
2018,03,01,06,05,0.00
2018,03,01,06,06,0.20
2018,03,01,06,07,0.10
2018,03,01,06,08,0.00
2018,03,01,06,09,0.00
2018,03,01,06,10,0.00
2018,03,01,06,11,0.00
2018,03,01,06,12,0.00
2018,03,01,06,13,0.00
2018,03,01,06,14,0.00
2018,03,01,06,15,0.00
2018,03,01,06,16,0.00
2018,03,01,06,17,0.00
2018,03,01,06,18,0.00
2018,03,01,06,19,0.00
2018,03,01,06,20,0.00
2018,03,01,06,21,0.00
2018,03,01,06,22,0.00
2018,03,01,06,23,0.00
2018,03,01,06,24,0.00
2018,03,01,06,25,2.60
2018,03,01,06,26,4.80
2018,03,01,06,27,5.00
2018,03,01,06,28,4.80
2018,03,01,06,29,5.30
2018,03,01,06,30,4.80
2018,03,01,06,31,3.10
2018,03,01,06,32,4.00
2018,03,01,06,33,3.40
2018,03,01,06,34,3.40
2018,03,01,06,35,4.80
2018,03,01,06,36,5.00
2018,03,01,06,37,5.30
2018,03,01,06,38,5.30
2018,03,01,06,39,4.80
2018,03,01,06,40,4.10
2018,03,01,06,41,4.50
2018,03,01,06,42,5.00
2018,03,01,06,43,4.50
2018,03,01,06,44,4.50
2018,03,01,06,45,3.70
2018,03,01,06,46,4.20
2018,03,01,06,47,3.90
2018,03,01,06,48,3.60
2018,03,01,06,49,4.20
2018,03,01,06,50,4.10
2018,03,01,06,51,2.80
2018,03,01,06,52,1.60
2018,03,01,06,53,0.80
2018,03,01,06,54,1.80
2018,03,01,06,55,2.20
2018,03,01,06,56,2.00
2018,03,01,06,57,3.30
2018,03,01,06,58,3.10
2018,03,01,06,59,2.60
2018,03,01,07,00,2.50
2018,03,01,07,01,2.70
2018,03,01,07,02,3.10
2018,03,01,07,03,3.30
2018,03,01,07,04,2.80
2018,03,01,07,05,2.60
2018,03,01,07,06,2.70
2018,03,01,07,07,0.80
2018,03,01,07,08,0.00
2018,03,01,07,09,0.00
2018,03,01,07,10,0.00
2018,03,01,07,11,0.00
2018,03,01,07,12,0.50
2018,03,01,07,13,0.50
2018,03,01,07,14,2.70
2018,03,01,07,15,2.00
2018,03,01,07,16,3.50
2018,03,01,07,17,3.90
2018,03,01,07,18,3.50
2018,03,01,07,19,4.50
2018,03,01,07,20,3.60
2018,03,01,07,21,3.60
2018,03,01,07,22,3.20
2018,03,01,07,23,3.80
2018,03,01,07,24,4.10
2018,03,01,07,25,2.30
2018,03,01,07,26,0.60
2018,03,01,07,27,5.00
2018,03,01,07,28,3.90
2018,03,01,07,29,3.40
2018,03,01,07,30,4.00
2018,03,01,07,31,4.20
2018,03,01,07,32,3.90
2018,03,01,07,33,3.40
2018,03,01,07,34,4.20
2018,03,01,07,35,3.90
2018,03,01,07,36,4.20
2018,03,01,07,37,3.10
2018,03,01,07,38,2.20
2018,03,01,07,39,2.50
2018,03,01,07,40,4.00
2018,03,01,07,41,3.40
2018,03,01,07,42,3.60
2018,03,01,07,43,3.40
2018,03,01,07,44,3.40
2018,03,01,07,45,3.70
2018,03,01,07,46,3.70
2018,03,01,07,47,3.40
2018,03,01,07,48,3.40
2018,03,01,07,49,3.40
2018,03,01,07,50,2.90
2018,03,01,07,51,1.90
2018,03,01,07,52,0.10
2018,03,01,07,53,0.00
2018,03,01,07,54,0.00
2018,03,01,07,55,2.30
2018,03,01,07,56,5.30
2018,03,01,07,57,7.70
2018,03,01,07,58,6.70
2018,03,01,07,59,5.60
2018,03,01,08,00,5.30
2018,03,01,08,01,6.10
2018,03,01,08,02,3.30
2018,03,01,08,03,0.60
2018,03,01,08,04,0.20
2018,03,01,08,05,0.00
2018,03,01,08,06,0.00
2018,03,01,08,07,0.00
2018,03,01,08,08,0.30
2018,03,01,08,09,0.40
2018,03,01,08,10,0.00
2018,03,01,08,11,0.00
2018,03,01,08,12,0.00
2018,03,01,08,13,0.10
2018,03,01,08,14,0.40
2018,03,01,08,15,2.30
2018,03,01,08,16,5.30
2018,03,01,08,17,4.60
2018,03,01,08,18,0.40
2018,03,01,08,19,6.80
2018,03,01,08,20,3.90
2018,03,01,08,21,6.10
2018,03,01,08,22,5.00
2018,03,01,08,23,4.50
2018,03,01,08,24,4.20
2018,03,01,08,25,7.10
2018,03,01,08,26,6.00
2018,03,01,08,27,7.60
2018,03,01,08,28,10.10
2018,03,01,08,29,8.00
2018,03,01,08,30,10.40
2018,03,01,08,31,5.40
2018,03,01,08,32,7.20
2018,03,01,08,33,7.00
2018,03,01,08,34,6.40
2018,03,01,08,35,5.00
2018,03,01,08,36,2.50
2018,03,01,08,37,3.10
2018,03,01,08,38,4.50
2018,03,01,08,39,4.50
2018,03,01,08,40,5.70
2018,03,01,08,41,6.10
2018,03,01,08,42,4.50
2018,03,01,08,43,1.20
2018,03,01,08,44,5.30
2018,03,01,08,45,8.20
2018,03,01,08,46,10.30
2018,03,01,08,47,3.90
2018,03,01,08,48,2.90
2018,03,01,08,49,3.50
2018,03,01,08,50,2.10
2018,03,01,08,51,3.90
2018,03,01,08,52,3.40
2018,03,01,08,53,1.80
2018,03,01,08,54,4.20
2018,03,01,08,55,2.00
2018,03,01,08,56,3.90
2018,03,01,08,57,3.30
2018,03,01,08,58,3.70
2018,03,01,08,59,3.90
2018,03,01,09,00,3.50
2018,03,01,09,01,6.80
2018,03,01,09,02,5.00
2018,03,01,09,03,5.00
2018,03,01,09,04,4.50
2018,03,01,09,05,4.00
2018,03,01,09,06,4.20
2018,03,01,09,07,4.40
2018,03,01,09,08,5.60
2018,03,01,09,09,6.40
2018,03,01,09,10,6.10
2018,03,01,09,11,3.10
2018,03,01,09,12,9.40
2018,03,01,09,13,9.20
2018,03,01,09,14,6.60
2018,03,01,09,15,8.60
2018,03,01,09,16,10.50
2018,03,01,09,17,6.70
2018,03,01,09,18,5.90
2018,03,01,09,19,7.70
2018,03,01,09,20,7.40
2018,03,01,09,21,8.50
2018,03,01,09,22,8.00
2018,03,01,09,23,6.70
2018,03,01,09,24,2.90
2018,03,01,09,25,5.80
2018,03,01,09,26,5.00
2018,03,01,09,27,7.10
2018,03,01,09,28,8.20
2018,03,01,09,29,9.40
2018,03,01,09,30,7.40
2018,03,01,09,31,6.20
2018,03,01,09,32,6.80
2018,03,01,09,33,2.70
2018,03,01,09,34,5.60
2018,03,01,09,35,7.30
2018,03,01,09,36,7.70
2018,03,01,09,37,9.10
2018,03,01,09,38,8.40
2018,03,01,09,39,10.60
2018,03,01,09,40,11.30
2018,03,01,09,41,11.30
2018,03,01,09,42,7.60
2018,03,01,09,43,7.90
2018,03,01,09,44,13.20
2018,03,01,09,45,10.80
2018,03,01,09,46,4.80
2018,03,01,09,47,6.00
2018,03,01,09,48,2.30
2018,03,01,09,49,3.90
2018,03,01,09,50,6.30
2018,03,01,09,51,7.30
2018,03,01,09,52,5.50
2018,03,01,09,53,10.90
2018,03,01,09,54,6.40
2018,03,01,09,55,4.20
2018,03,01,09,56,7.90
2018,03,01,09,57,9.70
2018,03,01,09,58,13.00
2018,03,01,09,59,9.80
2018,03,01,10,00,8.80
2018,03,01,10,01,4.80
2018,03,01,10,02,5.00
2018,03,01,10,03,7.60
2018,03,01,10,04,7.00
2018,03,01,10,05,7.70
2018,03,01,10,06,4.40
2018,03,01,10,07,6.40
2018,03,01,10,08,3.70
2018,03,01,10,09,6.20
2018,03,01,10,10,6.20
2018,03,01,10,11,6.90
2018,03,01,10,12,3.90
2018,03,01,10,13,5.30
2018,03,01,10,14,3.40
2018,03,01,10,15,5.30
2018,03,01,10,16,4.20
2018,03,01,10,17,6.10
2018,03,01,10,18,7.60
2018,03,01,10,19,5.00
2018,03,01,10,20,4.10
2018,03,01,10,21,4.40
2018,03,01,10,22,5.90
2018,03,01,10,23,8.10
2018,03,01,10,24,6.60
2018,03,01,10,25,4.50
2018,03,01,10,26,4.50
2018,03,01,10,27,4.50
2018,03,01,10,28,7.60
2018,03,01,10,29,5.60
2018,03,01,10,30,3.50
2018,03,01,10,31,4.70
2018,03,01,10,32,7.00
2018,03,01,10,33,7.10
2018,03,01,10,34,7.20
2018,03,01,10,35,8.00
2018,03,01,10,36,6.50
2018,03,01,10,37,7.90
2018,03,01,10,38,5.80
2018,03,01,10,39,8.30
2018,03,01,10,40,9.10
2018,03,01,10,41,5.90
2018,03,01,10,42,6.10
2018,03,01,10,43,6.10
2018,03,01,10,44,5.60
2018,03,01,10,45,3.90
2018,03,01,10,46,6.10
2018,03,01,10,47,5.70
2018,03,01,10,48,6.40
2018,03,01,10,49,5.60
2018,03,01,10,50,7.20
2018,03,01,10,51,7.40
2018,03,01,10,52,7.20
2018,03,01,10,53,5.00
2018,03,01,10,54,5.90
2018,03,01,10,55,5.10
2018,03,01,10,56,8.30
2018,03,01,10,57,6.10
2018,03,01,10,58,5.50
2018,03,01,10,59,9.50
2018,03,01,11,00,9.40
2018,03,01,11,01,9.70
2018,03,01,11,02,8.90
2018,03,01,11,03,11.90
2018,03,01,11,04,12.40
2018,03,01,11,05,6.40
2018,03,01,11,06,8.70
2018,03,01,11,07,6.70
2018,03,01,11,08,6.40
2018,03,01,11,09,4.50
2018,03,01,11,10,4.00
2018,03,01,11,11,7.20
2018,03,01,11,12,9.60
2018,03,01,11,13,11.30
2018,03,01,11,14,7.40
2018,03,01,11,15,6.90
2018,03,01,11,16,8.00
2018,03,01,11,17,6.40
2018,03,01,11,18,8.80
2018,03,01,11,19,6.70
2018,03,01,11,20,5.90
2018,03,01,11,21,7.70
2018,03,01,11,22,6.60
2018,03,01,11,23,8.70
2018,03,01,11,24,9.10
2018,03,01,11,25,6.60
2018,03,01,11,26,8.80
2018,03,01,11,27,4.50
2018,03,01,11,28,3.30
2018,03,01,11,29,3.70
2018,03,01,11,30,5.20
2018,03,01,11,31,4.30
2018,03,01,11,32,2.20
2018,03,01,11,33,5.10
2018,03,01,11,34,9.00
2018,03,01,11,35,10.50
2018,03,01,11,36,13.60
2018,03,01,11,37,11.10
2018,03,01,11,38,9.50
2018,03,01,11,39,7.70
2018,03,01,11,40,9.50
2018,03,01,11,41,5.90
2018,03,01,11,42,4.50
2018,03,01,11,43,7.00
2018,03,01,11,44,3.70
2018,03,01,11,45,4.00
2018,03,01,11,46,4.40
2018,03,01,11,47,3.70
2018,03,01,11,48,2.30
2018,03,01,11,49,2.30
2018,03,01,11,50,3.40
2018,03,01,11,51,4.80
2018,03,01,11,52,4.80
2018,03,01,11,53,7.00
2018,03,01,11,54,10.70
2018,03,01,11,55,9.20
2018,03,01,11,56,9.90
2018,03,01,11,57,7.00
2018,03,01,11,58,6.50
2018,03,01,11,59,5.10
2018,03,01,12,00,3.20
2018,03,01,12,01,8.60
2018,03,01,12,02,12.30
2018,03,01,12,03,9.10
2018,03,01,12,04,4.10
2018,03,01,12,05,10.30
2018,03,01,12,06,11.30
2018,03,01,12,07,5.60
2018,03,01,12,08,5.90
2018,03,01,12,09,9.70
2018,03,01,12,10,8.20
2018,03,01,12,11,10.20
2018,03,01,12,12,8.80
2018,03,01,12,13,13.20
2018,03,01,12,14,11.50
2018,03,01,12,15,7.20
2018,03,01,12,16,4.20
2018,03,01,12,17,10.50
2018,03,01,12,18,10.90
2018,03,01,12,19,6.10
2018,03,01,12,20,3.80
2018,03,01,12,21,10.90
2018,03,01,12,22,9.30
2018,03,01,12,23,10.60
2018,03,01,12,24,6.50
2018,03,01,12,25,8.30
2018,03,01,12,26,6.40
2018,03,01,12,27,4.70
2018,03,01,12,28,10.20
2018,03,01,12,29,5.90
2018,03,01,12,30,3.10
2018,03,01,12,31,8.40
2018,03,01,12,32,4.50
2018,03,01,12,33,6.10
2018,03,01,12,34,7.60
2018,03,01,12,35,14.00
2018,03,01,12,36,6.40
2018,03,01,12,37,9.00
2018,03,01,12,38,7.00
2018,03,01,12,39,5.00
2018,03,01,12,40,5.60
2018,03,01,12,41,9.00
2018,03,01,12,42,5.00
2018,03,01,12,43,6.70
2018,03,01,12,44,8.60
2018,03,01,12,45,11.00
2018,03,01,12,46,8.60
2018,03,01,12,47,4.20
2018,03,01,12,48,6.50
2018,03,01,12,49,6.60
2018,03,01,12,50,6.70
2018,03,01,12,51,15.00
2018,03,01,12,52,7.90
2018,03,01,12,53,8.60
2018,03,01,12,54,9.70
2018,03,01,12,55,8.90
2018,03,01,12,56,12.80
2018,03,01,12,57,11.50
2018,03,01,12,58,9.70
2018,03,01,12,59,9.70
2018,03,01,13,00,7.20
2018,03,01,13,01,13.40
2018,03,01,13,02,12.40
2018,03,01,13,03,9.60
2018,03,01,13,04,6.10
2018,03,01,13,05,9.40
2018,03,01,13,06,5.00
2018,03,01,13,07,2.80
2018,03,01,13,08,3.50
2018,03,01,13,09,5.20
2018,03,01,13,10,8.90
2018,03,01,13,11,6.00
2018,03,01,13,12,3.90
2018,03,01,13,13,10.30
2018,03,01,13,14,7.00
2018,03,01,13,15,4.20
2018,03,01,13,16,4.40
2018,03,01,13,17,7.50
2018,03,01,13,18,5.60
2018,03,01,13,19,9.40
2018,03,01,13,20,7.50
2018,03,01,13,21,6.90
2018,03,01,13,22,5.10
2018,03,01,13,23,6.70
2018,03,01,13,24,7.70
2018,03,01,13,25,6.90
2018,03,01,13,26,7.70
2018,03,01,13,27,10.80
2018,03,01,13,28,8.00
2018,03,01,13,29,10.60
2018,03,01,13,30,10.70
2018,03,01,13,31,6.10
2018,03,01,13,32,5.90
2018,03,01,13,33,6.90
2018,03,01,13,34,8.70
2018,03,01,13,35,11.00
2018,03,01,13,36,7.00
2018,03,01,13,37,7.10
2018,03,01,13,38,6.80
2018,03,01,13,39,8.80
2018,03,01,13,40,7.10
2018,03,01,13,41,7.20
2018,03,01,13,42,5.90
2018,03,01,13,43,6.00
2018,03,01,13,44,11.00
2018,03,01,13,45,9.20
2018,03,01,13,46,5.00
2018,03,01,13,47,4.00
2018,03,01,13,48,6.30
2018,03,01,13,49,7.70
2018,03,01,13,50,8.50
2018,03,01,13,51,11.20
2018,03,01,13,52,5.30
2018,03,01,13,53,7.60
2018,03,01,13,54,8.50
2018,03,01,13,55,8.20
2018,03,01,13,56,8.90
2018,03,01,13,57,6.90
2018,03,01,13,58,9.20
2018,03,01,13,59,10.50
2018,03,01,14,00,7.70
2018,03,01,14,01,7.10
2018,03,01,14,02,9.10
2018,03,01,14,03,14.30
2018,03,01,14,04,19.40
2018,03,01,14,05,13.20
2018,03,01,14,06,12.90
2018,03,01,14,07,13.90
2018,03,01,14,08,13.00
2018,03,01,14,09,11.40
2018,03,01,14,10,15.50
2018,03,01,14,11,12.00
2018,03,01,14,12,8.60
2018,03,01,14,13,11.10
2018,03,01,14,14,10.20
2018,03,01,14,15,13.30
2018,03,01,14,16,14.80
2018,03,01,14,17,10.50
2018,03,01,14,18,6.10
2018,03,01,14,19,9.50
2018,03,01,14,20,12.20
2018,03,01,14,21,9.50
2018,03,01,14,22,14.30
2018,03,01,14,23,13.30
2018,03,01,14,24,9.70
2018,03,01,14,25,12.30
2018,03,01,14,26,7.50
2018,03,01,14,27,7.70
2018,03,01,14,28,9.30
2018,03,01,14,29,8.40
2018,03,01,14,30,5.90
2018,03,01,14,31,5.30
2018,03,01,14,32,8.60
2018,03,01,14,33,5.30
2018,03,01,14,34,2.30
2018,03,01,14,35,7.20
2018,03,01,14,36,12.50
2018,03,01,14,37,11.60
2018,03,01,14,38,8.90
2018,03,01,14,39,8.80
2018,03,01,14,40,3.40
2018,03,01,14,41,10.50
2018,03,01,14,42,11.50
2018,03,01,14,43,5.60
2018,03,01,14,44,6.40
2018,03,01,14,45,7.40
2018,03,01,14,46,14.20
2018,03,01,14,47,11.40
2018,03,01,14,48,12.00
2018,03,01,14,49,11.90
2018,03,01,14,50,10.10
2018,03,01,14,51,11.70
2018,03,01,14,52,10.70
2018,03,01,14,53,8.60
2018,03,01,14,54,10.00
2018,03,01,14,55,10.60
2018,03,01,14,56,11.70
2018,03,01,14,57,10.30
2018,03,01,14,58,12.20
2018,03,01,14,59,7.60
2018,03,01,15,00,5.00
2018,03,01,15,01,3.80
2018,03,01,15,02,6.80
2018,03,01,15,03,17.10
2018,03,01,15,04,9.70
2018,03,01,15,05,11.00
2018,03,01,15,06,8.90
2018,03,01,15,07,7.00
2018,03,01,15,08,5.10
2018,03,01,15,09,9.10
2018,03,01,15,10,6.40
2018,03,01,15,11,10.80
2018,03,01,15,12,10.00
2018,03,01,15,13,3.90
2018,03,01,15,14,12.50
2018,03,01,15,15,10.50
2018,03,01,15,16,9.10
2018,03,01,15,17,9.50
2018,03,01,15,18,10.80
2018,03,01,15,19,6.10
2018,03,01,15,20,7.80
2018,03,01,15,21,13.00
2018,03,01,15,22,12.50
2018,03,01,15,23,9.30
2018,03,01,15,24,6.90
2018,03,01,15,25,11.30
2018,03,01,15,26,7.20
2018,03,01,15,27,11.80
2018,03,01,15,28,6.70
2018,03,01,15,29,8.10
2018,03,01,15,30,10.50
2018,03,01,15,31,8.00
2018,03,01,15,32,10.10
2018,03,01,15,33,9.60
2018,03,01,15,34,3.80
2018,03,01,15,35,6.10
2018,03,01,15,36,5.30
2018,03,01,15,37,8.90
2018,03,01,15,38,5.60
2018,03,01,15,39,7.40
2018,03,01,15,40,6.40
2018,03,01,15,41,7.30
2018,03,01,15,42,5.80
2018,03,01,15,43,11.60
2018,03,01,15,44,6.70
2018,03,01,15,45,6.90
2018,03,01,15,46,10.50
2018,03,01,15,47,10.00
2018,03,01,15,48,5.60
2018,03,01,15,49,10.00
2018,03,01,15,50,9.00
2018,03,01,15,51,12.20
2018,03,01,15,52,11.90
2018,03,01,15,53,9.50
2018,03,01,15,54,9.00
2018,03,01,15,55,10.20
2018,03,01,15,56,9.50
2018,03,01,15,57,7.30
2018,03,01,15,58,6.30
2018,03,01,15,59,6.90
2018,03,01,16,00,6.10
2018,03,01,16,01,4.80
2018,03,01,16,02,6.70
2018,03,01,16,03,7.00
2018,03,01,16,04,7.20
2018,03,01,16,05,3.00
2018,03,01,16,06,2.40
2018,03,01,16,07,3.00
2018,03,01,16,08,1.70
2018,03,01,16,09,7.60
2018,03,01,16,10,6.40
2018,03,01,16,11,8.90
2018,03,01,16,12,10.00
2018,03,01,16,13,9.60
2018,03,01,16,14,7.50
2018,03,01,16,15,6.20
2018,03,01,16,16,7.30
2018,03,01,16,17,6.20
2018,03,01,16,18,10.70
2018,03,01,16,19,9.10
2018,03,01,16,20,6.90
2018,03,01,16,21,7.20
2018,03,01,16,22,8.70
2018,03,01,16,23,7.80
2018,03,01,16,24,5.80
2018,03,01,16,25,4.80
2018,03,01,16,26,3.70
2018,03,01,16,27,2.50
2018,03,01,16,28,2.30
2018,03,01,16,29,6.40
2018,03,01,16,30,8.00
2018,03,01,16,31,7.30
2018,03,01,16,32,8.80
2018,03,01,16,33,5.90
2018,03,01,16,34,5.90
2018,03,01,16,35,5.00
2018,03,01,16,36,3.70
2018,03,01,16,37,7.60
2018,03,01,16,38,8.50
2018,03,01,16,39,10.10
2018,03,01,16,40,8.70
2018,03,01,16,41,7.20
2018,03,01,16,42,9.50
2018,03,01,16,43,9.40
2018,03,01,16,44,9.30
2018,03,01,16,45,8.70
2018,03,01,16,46,8.10
2018,03,01,16,47,7.50
2018,03,01,16,48,4.20
2018,03,01,16,49,6.70
2018,03,01,16,50,8.30
2018,03,01,16,51,9.20
2018,03,01,16,52,5.30
2018,03,01,16,53,12.20
2018,03,01,16,54,5.50
2018,03,01,16,55,9.50
2018,03,01,16,56,6.40
2018,03,01,16,57,10.00
2018,03,01,16,58,10.50
2018,03,01,16,59,10.10
2018,03,01,17,00,6.60
2018,03,01,17,01,4.60
2018,03,01,17,02,2.00
2018,03,01,17,03,7.00
2018,03,01,17,04,5.30
2018,03,01,17,05,7.90
2018,03,01,17,06,6.30
2018,03,01,17,07,5.30
2018,03,01,17,08,3.70
2018,03,01,17,09,5.30
2018,03,01,17,10,10.50
2018,03,01,17,11,6.10
2018,03,01,17,12,5.10
2018,03,01,17,13,4.30
2018,03,01,17,14,7.70
2018,03,01,17,15,3.40
2018,03,01,17,16,5.00
2018,03,01,17,17,4.20
2018,03,01,17,18,2.10
2018,03,01,17,19,1.90
2018,03,01,17,20,6.70
2018,03,01,17,21,5.70
2018,03,01,17,22,3.40
2018,03,01,17,23,2.20
2018,03,01,17,24,2.80
2018,03,01,17,25,2.00
2018,03,01,17,26,4.20
2018,03,01,17,27,2.30
2018,03,01,17,28,2.60
2018,03,01,17,29,4.20
2018,03,01,17,30,4.80
2018,03,01,17,31,3.50
2018,03,01,17,32,2.50
2018,03,01,17,33,3.80
2018,03,01,17,34,2.60
2018,03,01,17,35,3.20
2018,03,01,17,36,4.00
2018,03,01,17,37,4.80
2018,03,01,17,38,4.60
2018,03,01,17,39,3.60
2018,03,01,17,40,3.30
2018,03,01,17,41,2.50
2018,03,01,17,42,2.80
2018,03,01,17,43,2.80
2018,03,01,17,44,1.40
2018,03,01,17,45,2.10
2018,03,01,17,46,3.40
2018,03,01,17,47,1.10
2018,03,01,17,48,2.70
2018,03,01,17,49,2.20
2018,03,01,17,50,0.90
2018,03,01,17,51,1.50
2018,03,01,17,52,1.80
2018,03,01,17,53,2.60
2018,03,01,17,54,2.80